CZ-6A DEB, 56680

Orbit data source: Space-Track

CZ-6A DEB, 56680 is space debris in SSO originally from a launch on Fri, 11 Nov 2022 UTC launched from the Taiyaun Space Center, China (TSC). Debris objects in space refer to the collection of defunct objects orbiting the Earth. Examples of debris include non-operational satellites, rocket bodies, and fragments generated from explosions, collisions, or faulty payload assembly.

Loading next visibility...
Identifier
56680, 2022-151AHG
Orbit
SSO
Country
Flag of CNCN / PRC
Related business
Manufacturer
SAST
Mission
Spacecraft
Bus & Motor
Unknown
Mass
Unknown
Launch date (UTC)
2022-11-11 (4 years ago)
Launch vehicle
Unknown
Launch site
Taiyaun Space Center, China (TSC)
Object type
Payload
Rocket body
Debris
Shape & HBR
Unknown shape, 0.1 m
Radar Cross Section
Medium (>0.1 m² and <1 m²)

Expand to show TLE details & history
Last TLE update: 7 hours ago

TLE from 7 hours ago
0 CZ-6A DEB
1 56680U 22151AHG 26193.10541751  .00003924  00000-0  72033-3 0  9997
2 56680  98.6144 255.6704 0080191 214.8260 144.7678 14.64274813174582
Epoch: 2026-07-12T02:31Z
TLE epoch observation values (Epoch: 2026-07-12T02:31:48.072Z)
Latitude
-0.0001°
Longitude
-72.28894°
Altitude
728.77 km
Speed
7.466 km/s
True Right ascension
17h 02m 40s
True Declination
0° 00' 00"
Sunlit
Object was in full shadow at epoch
Visualization orbit readout
Latitude
Unknown
Longitude
Unknown
Altitude
Unknown
Speed
Unknown
Apparent Right ascension
Unknown
Apparent Declination
Unknown
Sunlit
N/A
Visualization observer readout
Local Sidereal Time
21:45:07
Azimuth
Unknown
Elevation
Unknown
Doppler factor
Unknown
Orbital elements
Apogee altitude
733.071 km
Perigee altitude
619.928 km
Semi-major axis
7,054.636 km
Eccentricity
0.00802
Inclination
98.6144°
RAAN
255.6704°
Arg. of periapsis
214.826°
True anomaly
145.2936°
Mean anomaly
144.7678°
Eccentric anomaly
145.03113°
Mean motion
3.66295 °/min
Orbital period
98.28 mins
BSTAR
0.00072033
Loading maneuver chart data...
Computing Atmospheric mass density...
Loading historical data...
Loading historical data...
Loading historical data...
Loading historical data...
Loading historical data...
Loading historical data...
Loading historical data...

Documentation

Showing up to 5 results
|